QPF
0.03 0.02 0.02 0.03 0.03 0.02 0.02 0.02 0.02 0.01 0.01 0.01 0.01 0.02 0.03 0.04 0.05 0.04 0.04 0.04 0.03 0.03 0.06 0.12 0.09 0.06 0.06 0.06 0.06 0.06 0.04 0.03 0.02 0.02 0.02 0.02 0.03 0.03 0.04 0.05 0.04 0.03 0.04
0.03 0.04 0.04 0.04 0.04 0.04 0.04 0.04 0.03 0.03 0.02 0.02 0.02 0.03 0.04 0.04 0.07 0.08 0.06 0.05 0.03 0.03 0.03 0.07 0.11 0.09 0.07 0.07 0.07 0.05 0.03 0.03 0.04 0.03 0.02 0.03 0.03 0.04 0.04 0.05 0.05 0.03 0.04
0.03 0.03 0.04 0.04 0.03 0.05 0.07 0.08 0.07 0.05 0.05 0.03 0.04 0.05 0.05 0.05 0.07 0.08 0.07 0.05 0.03 0.02 0.03 0.05 0.08 0.08 0.08 0.07 0.06 0.04 0.03 0.03 0.05 0.06 0.04 0.03 0.03 0.04 0.04 0.05 0.06 0.06 0.05
0.04 0.04 0.03 0.03 0.05 0.06 0.04 0.05 0.07 0.06 0.07 0.06 0.06 0.08 0.07 0.06 0.05 0.05 0.07 0.06 0.04 0.03 0.05 0.08 0.10 0.11 0.09 0.07 0.06 0.04 0.03 0.03 0.04 0.06 0.06 0.05 0.04 0.05 0.05 0.04 0.04 0.05 0.06
0.04 0.03 0.03 0.02 0.03 0.02 0.02 0.03 0.05 0.04 0.05 0.08 0.09 0.10 0.09 0.08 0.08 0.06 0.07 0.07 0.05 0.04 0.04 0.04 0.05 0.09 0.12 0.11 0.08 0.05 0.04 0.04 0.05 0.07 0.07 0.07 0.08 0.09 0.09 0.06 0.03 0.02 0.02
0.02 0.01 0.01 0.02 0.02 0.03 0.02 0.02 0.02 0.03 0.04 0.06 0.06 0.07 0.08 0.07 0.07 0.06 0.05 0.05 0.05 0.05 0.04 0.04 0.04 0.05 0.09 0.12 0.11 0.09 0.06 0.05 0.07 0.09 0.09 0.08 0.09 0.12 0.12 0.07 0.03 0.02 0.01
0.02 0.02 0.01 0.02 0.02 0.03 0.03 0.03 0.03 0.03 0.04 0.05 0.05 0.05 0.05 0.06 0.06 0.06 0.08 0.07 0.09 0.10 0.11 0.11 0.09 0.07 0.06 0.09 0.13 0.14 0.11 0.08 0.08 0.09 0.09 0.08 0.06 0.07 0.08 0.07 0.05 0.05 0.03
0.02 0.02 0.02 0.03 0.04 0.06 0.07 0.07 0.06 0.05 0.07 0.06 0.06 0.06 0.06 0.07 0.07 0.08 0.07 0.07 0.08 0.08 0.10 0.09 0.08 0.07 0.07 0.06 0.08 0.10 0.11 0.11 0.11 0.09 0.08 0.08 0.07 0.07 0.07 0.08 0.09 0.06 0.03
0.02 0.03 0.04 0.05 0.05 0.08 0.11 0.14 0.14 0.11 0.10 0.11 0.10 0.08 0.07 0.07 0.06 0.05 0.04 0.04 0.04 0.04 0.04 0.04 0.04 0.03 0.05 0.05 0.05 0.06 0.07 0.10 0.12 0.10 0.09 0.07 0.07 0.06 0.06 0.07 0.06 0.05 0.03
0.05 0.05 0.07 0.06 0.04 0.06 0.09 0.11 0.15 0.15 0.11 0.08 0.06 0.04 0.03 0.04 0.04 0.04 0.04 0.04 0.04 0.03 0.03 0.03 0.03 0.03 0.03 0.04 0.05 0.05 0.05 0.07 0.08 0.09 0.09 0.09 0.07 0.06 0.06 0.07 0.06 0.05 0.03
0.03 0.03 0.03 0.04 0.06 0.07 0.09 0.09 0.08 0.08 0.07 0.05 0.04 0.02 0.02 0.02 0.02 0.02 0.02 0.03 0.04 0.03 0.03 0.03 0.03 0.03 0.03 0.03 0.05 0.06 0.07 0.08 0.08 0.07 0.07 0.06 0.05 0.05 0.05 0.05 0.04 0.05 0.05
0.02 0.02 0.03 0.04 0.05 0.05 0.07 0.08 0.08 0.08 0.06 0.04 0.03 0.02 0.02 0.02 0.02 0.02 0.04 0.03 0.02 0.03 0.04 0.04 0.03 0.02 0.02 0.04 0.04 0.05 0.06 0.07 0.08 0.07 0.07 0.06 0.05 0.04 0.03 0.03 0.03 0.03 0.04
0.02 0.03 0.03 0.03 0.03 0.04 0.04 0.04 0.04 0.04 0.03 0.03 0.02 0.02 0.02 0.02 0.03 0.03 0.04 0.05 0.04 0.03 0.03 0.03 0.02 0.02 0.02 0.03 0.03 0.03 0.04 0.04 0.04 0.06 0.06 0.05 0.05 0.03 0.02 0.02 0.02 0.02 0.03
0.02 0.02 0.03 0.03 0.03 0.03 0.02 0.02 0.02 0.01 0.01 0.02 0.02 0.02 0.02 0.03 0.03 0.03 0.03 0.03 0.03 0.03 0.03 0.04 0.04 0.04 0.04 0.04 0.04 0.04 0.04 0.03 0.04 0.04 0.05 0.05 0.04 0.03 0.02 0.02 0.01 0.02 0.02
0.01 0.02 0.02 0.02 0.01 0.01 0.02 0.01 0.02 0.01 0.01 0.01 0.02 0.02 0.03 0.03 0.02 0.02 0.02 0.02 0.02 0.02 0.03 0.05 0.06 0.07 0.05 0.04 0.04 0.03 0.03 0.02 0.02 0.02 0.02 0.02 0.02 0.02 0.03 0.03 0.02 0.02 0.02
0.01 0.01 0.01 0.01 0.01 0.01 0.00 0.01 0.01 0.01 0.01 0.02 0.02 0.03 0.04 0.03 0.02 0.03 0.04 0.03 0.02 0.03 0.03 0.03 0.04 0.04 0.04 0.04 0.04 0.03 0.02 0.02 0.01 0.02 0.02 0.03 0.03 0.03 0.04 0.03 0.03 0.03 0.02
0.01 0.01 0.00 0.00 0.01 0.01 0.00 0.01 0.01 0.01 0.02 0.01 0.02 0.02 0.02 0.01 0.01 0.02 0.03 0.03 0.04 0.04 0.04 0.03 0.03 0.03 0.03 0.03 0.04 0.04 0.03 0.03 0.02 0.01 0.02 0.03 0.03 0.04 0.03 0.04 0.04 0.03 0.03
0.01 0.01 0.00 0.00 0.01 0.01 0.01 0.00 0.01 0.01 0.01 0.01 0.01 0.01 0.01 0.01 0.01 0.02 0.02 0.03 0.04 0.05 0.04 0.03 0.03 0.03 0.03 0.04 0.04 0.04 0.04 0.03 0.02 0.02 0.03 0.03 0.03 0.03 0.03 0.03 0.02 0.01 0.02
0.01 0.01 0.01 0.01 0.00 0.01 0.01 0.01 0.00 0.00 0.01 0.01 0.01 0.01 0.01 0.01 0.02 0.02 0.03 0.03 0.04 0.04 0.04 0.04 0.04 0.04 0.04 0.05 0.05 0.04 0.03 0.03 0.03 0.02 0.02 0.02 0.02 0.03 0.03 0.03 0.02 0.02 0.02
0.01 0.01 0.02 0.02 0.01 0.02 0.01 0.01 0.01 0.01 0.01 0.01 0.01 0.01 0.01 0.02 0.02 0.03 0.03 0.04 0.05 0.04 0.04 0.05 0.05 0.04 0.04 0.06 0.07 0.07 0.05 0.03 0.02 0.02 0.02 0.03 0.02 0.02 0.02 0.02 0.02 0.02 0.02
0.02 0.02 0.01 0.01 0.01 0.02 0.02 0.02 0.01 0.01 0.01 0.01 0.01 0.02 0.02 0.03 0.04 0.05 0.05 0.06 0.07 0.06 0.05 0.05 0.04 0.03 0.04 0.05 0.06 0.06 0.03 0.01 0.02 0.01 0.01 0.02 0.02 0.01 0.02 0.02 0.02 0.01 0.01
0.03 0.02 0.01 0.01 0.01 0.01 0.01 0.02 0.01 0.02 0.03 0.03 0.04 0.04 0.04 0.05 0.06 0.06 0.07 0.07 0.07 0.06 0.04 0.02 0.01 0.01 0.02 0.03 0.04 0.03 0.02 0.02 0.02 0.01 0.01 0.01 0.01 0.01 0.01 0.01 0.01 0.01 0.02
0.02 0.01 0.02 0.02 0.03 0.04 0.04 0.04 0.04 0.04 0.04 0.05 0.06 0.06 0.06 0.06 0.06 0.06 0.06 0.06 0.05 0.03 0.02 0.01 0.01 0.01 0.02 0.02 0.03 0.02 0.01 0.01 0.01 0.01 0.01 0.00 0.00 0.00 0.00 0.01 0.02 0.02 0.02
0.02 0.02 0.03 0.04 0.04 0.05 0.07 0.08 0.07 0.06 0.06 0.06 0.05 0.05 0.05 0.05 0.05 0.05 0.04 0.03 0.03 0.02 0.01 0.01 0.01 0.01 0.02 0.02 0.03 0.02 0.01 0.01 0.01 0.01 0.01 0.01 0.00 0.00 0.00 0.00 0.01 0.01 0.01
0.04 0.05 0.05 0.06 0.06 0.06 0.06 0.06 0.06 0.06 0.06 0.06 0.06 0.06 0.05 0.05 0.05 0.04 0.04 0.04 0.03 0.02 0.02 0.01 0.01 0.01 0.01 0.01 0.02 0.03 0.03 0.02 0.02 0.01 0.01 0.01 0.01 0.00 0.00 0.00 0.00 0.00 0.01
0.04 0.06 0.07 0.06 0.05 0.04 0.05 0.05 0.08 0.10 0.09 0.08 0.06 0.05 0.05 0.04 0.06 0.06 0.06 0.05 0.04 0.03 0.02 0.02 0.01 0.01 0.01 0.01 0.01 0.02 0.03 0.03 0.03 0.03 0.02 0.02 0.02 0.01 0.01 0.01 0.01 0.01 0.01
MSLP
1010.51 1010.52 1010.52 1010.51 1010.49 1010.49 1010.55 1010.70 1010.96 1011.32 1011.76 1012.22 1012.66 1013.03 1013.30 1013.46 1013.52 1013.52 1013.49 1013.48 1013.51 1013.60 1013.75 1013.93 1014.11 1014.26 1014.36 1014.39 1014.37 1014.29 1014.18 1014.06 1013.94 1013.83 1013.70 1013.57 1013.40 1013.21 1012.99 1012.76 1012.52 1012.32 1012.16
1010.33 1010.40 1010.44 1010.44 1010.40 1010.36 1010.37 1010.46 1010.68 1011.02 1011.47 1011.97 1012.47 1012.90 1013.22 1013.41 1013.49 1013.48 1013.43 1013.40 1013.42 1013.51 1013.68 1013.88 1014.10 1014.29 1014.42 1014.47 1014.45 1014.38 1014.27 1014.15 1014.04 1013.95 1013.87 1013.78 1013.66 1013.50 1013.29 1013.04 1012.77 1012.50 1012.28
1010.00 1010.15 1010.26 1010.30 1010.28 1010.23 1010.19 1010.24 1010.41 1010.73 1011.17 1011.69 1012.23 1012.71 1013.08 1013.31 1013.41 1013.42 1013.37 1013.34 1013.36 1013.46 1013.64 1013.88 1014.13 1014.35 1014.51 1014.59 1014.59 1014.52 1014.41 1014.31 1014.22 1014.17 1014.13 1014.09 1014.03 1013.91 1013.72 1013.47 1013.17 1012.85 1012.55
1009.49 1009.73 1009.93 1010.05 1010.08 1010.04 1009.99 1010.00 1010.14 1010.42 1010.85 1011.37 1011.93 1012.44 1012.86 1013.14 1013.27 1013.30 1013.28 1013.26 1013.30 1013.42 1013.62 1013.89 1014.18 1014.44 1014.63 1014.74 1014.75 1014.70 1014.61 1014.52 1014.46 1014.44 1014.44 1014.46 1014.44 1014.37 1014.21 1013.97 1013.66 1013.30 1012.94
1008.81 1009.14 1009.45 1009.67 1009.77 1009.78 1009.74 1009.74 1009.85 1010.10 1010.50 1011.01 1011.57 1012.10 1012.55 1012.87 1013.05 1013.12 1013.14 1013.15 1013.21 1013.36 1013.59 1013.90 1014.22 1014.52 1014.75 1014.88 1014.92 1014.89 1014.81 1014.74 1014.70 1014.70 1014.74 1014.80 1014.83 1014.80 1014.68 1014.46 1014.15 1013.78 1013.38
1008.01 1008.42 1008.84 1009.17 1009.37 1009.44 1009.44 1009.45 1009.54 1009.76 1010.13 1010.62 1011.17 1011.71 1012.19 1012.54 1012.77 1012.89 1012.94 1012.99 1013.09 1013.27 1013.53 1013.87 1014.23 1014.56 1014.82 1014.98 1015.05 1015.03 1014.97 1014.91 1014.88 1014.89 1014.95 1015.04 1015.11 1015.12 1015.04 1014.85 1014.56 1014.20 1013.79
1007.15 1007.63 1008.15 1008.59 1008.90 1009.05 1009.11 1009.14 1009.22 1009.42 1009.76 1010.23 1010.76 1011.31 1011.80 1012.19 1012.46 1012.62 1012.72 1012.80 1012.93 1013.14 1013.43 1013.79 1014.17 1014.53 1014.81 1015.00 1015.09 1015.09 1015.03 1014.97 1014.94 1014.95 1015.02 1015.11 1015.21 1015.26 1015.22 1015.08 1014.84 1014.51 1014.13
1006.31 1006.85 1007.45 1007.99 1008.38 1008.62 1008.74 1008.81 1008.91 1009.10 1009.42 1009.87 1010.40 1010.95 1011.45 1011.87 1012.17 1012.37 1012.50 1012.62 1012.77 1012.99 1013.29 1013.65 1014.04 1014.41 1014.71 1014.92 1015.01 1015.02 1014.97 1014.90 1014.85 1014.86 1014.91 1015.01 1015.12 1015.20 1015.21 1015.13 1014.95 1014.68 1014.35
1005.58 1006.14 1006.79 1007.39 1007.86 1008.17 1008.35 1008.46 1008.59 1008.80 1009.13 1009.57 1010.10 1010.66 1011.18 1011.62 1011.95 1012.18 1012.34 1012.47 1012.62 1012.83 1013.12 1013.47 1013.85 1014.21 1014.51 1014.72 1014.82 1014.83 1014.78 1014.70 1014.63 1014.62 1014.66 1014.74 1014.86 1014.97 1015.03 1015.01 1014.91 1014.73 1014.47
1005.00 1005.55 1006.20 1006.82 1007.33 1007.69 1007.92 1008.09 1008.26 1008.51 1008.86 1009.33 1009.88 1010.46 1011.01 1011.47 1011.83 1012.07 1012.24 1012.36 1012.50 1012.69 1012.94 1013.25 1013.60 1013.93 1014.22 1014.42 1014.53 1014.54 1014.48 1014.40 1014.32 1014.28 1014.30 1014.38 1014.49 1014.62 1014.73 1014.78 1014.76 1014.66 1014.49
1004.59 1005.09 1005.70 1006.30 1006.80 1007.18 1007.45 1007.66 1007.90 1008.20 1008.61 1009.13 1009.72 1010.34 1010.92 1011.41 1011.78 1012.03 1012.19 1012.30 1012.40 1012.55 1012.75 1013.01 1013.30 1013.60 1013.87 1014.06 1014.16 1014.18 1014.13 1014.04 1013.95 1013.90 1013.90 1013.96 1014.08 1014.22 1014.36 1014.47 1014.52 1014.50 1014.42
1004.35 1004.76 1005.28 1005.80 1006.26 1006.62 1006.91 1007.18 1007.47 1007.85 1008.33 1008.92 1009.57 1010.23 1010.85 1011.36 1011.74 1012.00 1012.15 1012.23 1012.29 1012.38 1012.52 1012.72 1012.97 1013.23 1013.46 1013.64 1013.75 1013.77 1013.73 1013.65 1013.57 1013.51 1013.50 1013.55 1013.65 1013.80 1013.95 1014.10 1014.21 1014.27 1014.26
1004.23 1004.52 1004.91 1005.33 1005.70 1006.03 1006.32 1006.62 1006.98 1007.43 1008.00 1008.66 1009.37 1010.08 1010.73 1011.27 1011.66 1011.91 1012.04 1012.09 1012.12 1012.15 1012.24 1012.38 1012.58 1012.80 1013.01 1013.18 1013.29 1013.33 1013.31 1013.25 1013.17 1013.11 1013.09 1013.13 1013.22 1013.35 1013.51 1013.68 1013.82 1013.93 1013.98
1004.21 1004.36 1004.60 1004.87 1005.15 1005.41 1005.69 1006.01 1006.43 1006.96 1007.59 1008.32 1009.09 1009.84 1010.51 1011.06 1011.45 1011.70 1011.81 1011.84 1011.83 1011.82 1011.86 1011.96 1012.12 1012.30 1012.50 1012.66 1012.78 1012.84 1012.84 1012.80 1012.73 1012.68 1012.65 1012.66 1012.73 1012.84 1012.99 1013.16 1013.31 1013.45 1013.55
1004.24 1004.25 1004.34 1004.47 1004.63 1004.83 1005.08 1005.42 1005.87 1006.45 1007.14 1007.91 1008.71 1009.48 1010.16 1010.71 1011.09 1011.32 1011.42 1011.43 1011.39 1011.37 1011.38 1011.45 1011.58 1011.74 1011.92 1012.08 1012.20 1012.28 1012.29 1012.27 1012.21 1012.15 1012.11 1012.11 1012.15 1012.23 1012.35 1012.50 1012.65 1012.80 1012.94
1004.34 1004.23 1004.18 1004.18 1004.23 1004.35 1004.57 1004.91 1005.39 1005.99 1006.71 1007.49 1008.29 1009.04 1009.70 1010.22 1010.58 1010.79 1010.88 1010.88 1010.84 1010.81 1010.81 1010.87 1010.97 1011.12 1011.29 1011.44 1011.56 1011.63 1011.65 1011.63 1011.57 1011.51 1011.45 1011.42 1011.42 1011.47 1011.56 1011.68 1011.83 1011.98 1012.14
1004.51 1004.30 1004.14 1004.04 1004.01 1004.08 1004.26 1004.59 1005.06 1005.66 1006.36 1007.12 1007.88 1008.59 1009.19 1009.67 1009.99 1010.18 1010.26 1010.26 1010.23 1010.21 1010.22 1010.27 1010.37 1010.50 1010.64 1010.78 1010.88 1010.93 1010.94 1010.90 1010.83 1010.75 1010.67 1010.61 1010.58 1010.59 1010.65 1010.74 1010.88 1011.03 1011.21
1004.77 1004.52 1004.29 1004.13 1004.04 1004.07 1004.23 1004.53 1004.98 1005.55 1006.20 1006.90 1007.58 1008.21 1008.74 1009.15 1009.43 1009.59 1009.66 1009.68 1009.67 1009.67 1009.69 1009.75 1009.84 1009.95 1010.06 1010.16 1010.22 1010.24 1010.21 1010.14 1010.04 1009.93 1009.82 1009.73 1009.68 1009.66 1009.69 1009.76 1009.88 1010.04 1010.24
1005.14 1004.89 1004.65 1004.46 1004.36 1004.36 1004.50 1004.78 1005.19 1005.71 1006.29 1006.89 1007.48 1008.00 1008.44 1008.77 1009.00 1009.14 1009.21 1009.24 1009.26 1009.28 1009.32 1009.39 1009.47 1009.55 1009.62 1009.67 1009.67 1009.64 1009.56 1009.44 1009.31 1009.17 1009.03 1008.92 1008.84 1008.80 1008.81 1008.87 1008.98 1009.15 1009.36
1005.63 1005.41 1005.20 1005.03 1004.93 1004.94 1005.08 1005.33 1005.69 1006.14 1006.63 1007.12 1007.60 1008.01 1008.35 1008.61 1008.79 1008.91 1008.98 1009.03 1009.08 1009.13 1009.19 1009.26 1009.32 1009.37 1009.39 1009.38 1009.32 1009.22 1009.08 1008.92 1008.74 1008.57 1008.41 1008.28 1008.18 1008.13 1008.13 1008.18 1008.29 1008.46 1008.68
1006.19 1006.05 1005.89 1005.77 1005.71 1005.74 1005.88 1006.11 1006.42 1006.79 1007.19 1007.58 1007.94 1008.25 1008.50 1008.69 1008.83 1008.93 1009.01 1009.08 1009.15 1009.23 1009.30 1009.36 1009.41 1009.42 1009.39 1009.31 1009.19 1009.03 1008.84 1008.63 1008.42 1008.23 1008.05 1007.91 1007.81 1007.76 1007.75 1007.80 1007.90 1008.06 1008.28
1006.80 1006.74 1006.66 1006.61 1006.60 1006.66 1006.80 1007.01 1007.28 1007.58 1007.89 1008.18 1008.44 1008.66 1008.83 1008.97 1009.07 1009.17 1009.25 1009.34 1009.43 1009.52 1009.60 1009.66 1009.67 1009.65 1009.57 1009.44 1009.27 1009.06 1008.83 1008.59 1008.37 1008.16 1007.99 1007.85 1007.75 1007.70 1007.69 1007.74 1007.83 1007.98 1008.18
1007.38 1007.41 1007.42 1007.44 1007.49 1007.59 1007.74 1007.93 1008.16 1008.40 1008.63 1008.84 1009.02 1009.16 1009.28 1009.37 1009.45 1009.54 1009.63 1009.72 1009.82 1009.92 1009.99 1010.03 1010.02 1009.96 1009.85 1009.68 1009.47 1009.24 1008.99 1008.75 1008.52 1008.32 1008.16 1008.03 1007.94 1007.90 1007.89 1007.92 1008.00 1008.13 1008.31
1007.89 1008.01 1008.10 1008.19 1008.30 1008.43 1008.59 1008.77 1008.96 1009.15 1009.32 1009.46 1009.58 1009.66 1009.73 1009.79 1009.86 1009.93 1010.01 1010.10 1010.20 1010.28 1010.34 1010.35 1010.32 1010.24 1010.10 1009.91 1009.69 1009.46 1009.21 1008.98 1008.77 1008.59 1008.45 1008.34 1008.26 1008.22 1008.21 1008.24 1008.30 1008.40 1008.55
1008.29 1008.49 1008.66 1008.81 1008.96 1009.12 1009.29 1009.46 1009.62 1009.76 1009.88 1009.97 1010.04 1010.08 1010.11 1010.14 1010.18 1010.23 1010.30 1010.37 1010.44 1010.49 1010.52 1010.51 1010.45 1010.35 1010.20 1010.01 1009.80 1009.58 1009.36 1009.16 1008.98 1008.83 1008.70 1008.61 1008.54 1008.50 1008.48 1008.50 1008.55 1008.63 1008.75
1008.61 1008.87 1009.09 1009.29 1009.48 1009.66 1009.82 1009.97 1010.10 1010.21 1010.28 1010.33 1010.36 1010.36 1010.36 1010.36 1010.37 1010.38 1010.41 1010.44 1010.47 1010.48 1010.47 1010.42 1010.34 1010.21 1010.06 1009.88 1009.69 1009.50 1009.32 1009.15 1009.00 1008.87 1008.77 1008.69 1008.62 1008.58 1008.55 1008.55 1008.58 1008.65 1008.75
Thickness
5795 5794 5793 5792 5789 5786 5783 5780 5777 5776 5773 5770 5767 5765 5764 5764 5764 5764 5764 5763 5762 5761 5761 5760 5759 5758 5757 5756 5754 5753 5751 5751 5751 5749 5748 5750 5752 5753 5754 5754 5754 5753 5752
5792 5793 5793 5792 5789 5786 5784 5781 5779 5778 5776 5774 5771 5769 5766 5765 5765 5765 5764 5764 5763 5762 5762 5760 5759 5758 5757 5755 5753 5752 5749 5749 5750 5746 5742 5739 5743 5748 5752 5752 5752 5752 5751
5793 5793 5792 5791 5790 5787 5786 5785 5781 5780 5778 5776 5772 5769 5766 5765 5763 5763 5763 5764 5763 5762 5762 5761 5760 5758 5756 5754 5753 5752 5749 5746 5747 5746 5742 5736 5733 5738 5745 5748 5749 5749 5749
5798 5796 5794 5792 5791 5790 5788 5786 5783 5780 5778 5775 5772 5768 5764 5761 5763 5763 5763 5763 5763 5762 5761 5760 5759 5758 5756 5754 5753 5752 5750 5747 5744 5744 5744 5743 5740 5735 5735 5740 5744 5746 5745
5801 5799 5797 5796 5795 5793 5790 5787 5784 5781 5778 5776 5773 5769 5766 5764 5764 5763 5762 5762 5761 5760 5760 5759 5758 5756 5755 5754 5752 5751 5749 5747 5745 5743 5742 5740 5738 5737 5732 5730 5735 5739 5741
5803 5801 5799 5797 5794 5793 5791 5787 5783 5780 5778 5776 5773 5770 5766 5764 5762 5760 5759 5759 5758 5758 5758 5757 5756 5755 5754 5753 5752 5750 5748 5746 5744 5743 5741 5739 5736 5734 5732 5729 5730 5731 5736
5802 5799 5796 5794 5793 5792 5790 5786 5782 5778 5777 5775 5772 5769 5767 5764 5761 5759 5758 5756 5755 5755 5755 5755 5753 5753 5752 5751 5750 5749 5747 5745 5743 5741 5739 5738 5737 5736 5733 5729 5727 5727 5730
5801 5799 5798 5796 5794 5792 5789 5784 5780 5777 5775 5773 5770 5768 5766 5763 5761 5759 5758 5756 5755 5754 5754 5753 5751 5750 5750 5749 5748 5746 5744 5742 5740 5739 5737 5736 5734 5734 5731 5728 5724 5721 5722
5800 5798 5797 5794 5792 5790 5787 5784 5779 5775 5773 5771 5768 5765 5763 5761 5759 5758 5756 5755 5754 5753 5752 5751 5749 5747 5746 5745 5744 5742 5740 5738 5737 5735 5734 5732 5731 5730 5729 5726 5724 5719 5714
5797 5796 5794 5792 5791 5789 5786 5783 5778 5774 5770 5767 5766 5764 5761 5759 5758 5756 5753 5752 5751 5750 5749 5747 5745 5744 5742 5741 5739 5738 5736 5734 5732 5731 5728 5727 5726 5725 5723 5722 5720 5718 5715
5795 5794 5792 5790 5787 5785 5782 5779 5776 5771 5768 5766 5764 5761 5759 5757 5755 5753 5751 5749 5748 5746 5745 5743 5741 5740 5738 5736 5734 5733 5731 5729 5727 5725 5723 5721 5720 5719 5717 5716 5714 5713 5711
5793 5792 5790 5786 5782 5780 5778 5775 5773 5770 5767 5764 5762 5759 5756 5754 5751 5749 5748 5746 5743 5742 5740 5739 5737 5736 5734 5732 5730 5728 5726 5723 5721 5719 5718 5716 5715 5713 5711 5710 5709 5708 5707
5789 5787 5785 5781 5778 5777 5775 5772 5770 5767 5765 5762 5758 5755 5752 5750 5748 5745 5743 5741 5739 5737 5735 5734 5732 5730 5729 5727 5725 5722 5720 5718 5716 5714 5712 5710 5708 5706 5705 5704 5703 5702 5702
5784 5782 5779 5777 5775 5773 5770 5768 5766 5764 5762 5758 5754 5751 5749 5746 5743 5741 5738 5736 5734 5732 5730 5728 5727 5725 5723 5721 5719 5716 5713 5711 5710 5708 5706 5704 5702 5701 5699 5699 5697 5696 5695
5778 5777 5775 5773 5771 5769 5767 5765 5763 5761 5758 5753 5750 5747 5744 5742 5739 5736 5734 5731 5729 5728 5725 5722 5720 5719 5717 5715 5712 5709 5707 5704 5702 5700 5699 5698 5697 5695 5694 5693 5691 5690 5688
5775 5775 5774 5771 5768 5767 5764 5762 5758 5756 5753 5749 5746 5743 5740 5737 5734 5731 5729 5726 5724 5722 5719 5716 5713 5711 5710 5708 5705 5702 5700 5697 5695 5693 5691 5691 5689 5688 5687 5686 5685 5683 5682
5772 5771 5770 5768 5766 5764 5762 5758 5755 5752 5748 5744 5741 5739 5736 5733 5729 5726 5723 5720 5717 5715 5712 5709 5706 5704 5702 5700 5697 5694 5692 5690 5688 5686 5684 5683 5682 5680 5679 5678 5677 5676 5675
5768 5767 5766 5765 5763 5760 5758 5755 5750 5746 5742 5739 5736 5733 5731 5727 5724 5720 5716 5713 5711 5708 5704 5702 5699 5696 5694 5692 5689 5687 5684 5682 5680 5678 5677 5675 5673 5672 5670 5669 5668 5668 5668
5766 5765 5763 5761 5757 5754 5751 5747 5743 5739 5736 5733 5730 5728 5725 5721 5717 5713 5710 5707 5704 5700 5697 5693 5690 5687 5685 5683 5681 5678 5675 5672 5670 5669 5668 5666 5665 5664 5662 5661 5660 5659 5660
5761 5759 5757 5754 5750 5747 5745 5740 5735 5732 5729 5727 5724 5722 5718 5714 5711 5707 5703 5699 5696 5692 5689 5685 5681 5679 5677 5675 5672 5669 5666 5664 5662 5660 5659 5657 5655 5654 5653 5652 5651 5650 5650
5754 5752 5749 5746 5744 5741 5737 5732 5728 5725 5724 5721 5717 5714 5711 5707 5704 5699 5695 5691 5686 5682 5679 5675 5673 5671 5668 5666 5663 5661 5658 5656 5653 5651 5649 5648 5646 5644 5643 5642 5641 5641 5641
5744 5743 5739 5737 5736 5733 5729 5724 5721 5720 5716 5712 5708 5705 5702 5699 5695 5690 5686 5682 5677 5673 5670 5667 5664 5662 5659 5657 5655 5652 5650 5648 5645 5642 5640 5638 5637 5635 5634 5633 5633 5632 5631
5734 5733 5731 5728 5726 5724 5722 5716 5715 5712 5708 5703 5698 5694 5692 5689 5685 5681 5676 5673 5669 5665 5662 5658 5655 5654 5651 5648 5646 5643 5641 5639 5636 5633 5631 5629 5627 5625 5625 5624 5623 5622 5622
5722 5721 5719 5716 5714 5713 5712 5709 5706 5703 5698 5694 5689 5685 5681 5678 5674 5671 5667 5664 5659 5656 5653 5650 5648 5645 5642 5640 5637 5634 5631 5629 5626 5623 5621 5619 5617 5616 5615 5614 5614 5613 5612
5710 5709 5707 5705 5703 5702 5700 5698 5694 5691 5686 5683 5679 5674 5670 5666 5663 5660 5656 5654 5652 5650 5647 5644 5641 5637 5635 5632 5629 5625 5622 5619 5617 5614 5612 5609 5607 5606 5605 5604 5604 5603 5603
5699 5697 5696 5695 5693 5691 5689 5688 5685 5682 5676 5671 5667 5664 5662 5658 5653 5649 5646 5644 5643 5641 5639 5636 5632 5630 5626 5623 5619 5616 5614 5610 5607 5604 5602 5600 5598 5596 5595 5595 5594 5594 5593